FW8300 Weather Reports


time (UTC)temp
C
wind
direction
speed
KPH
gust
KPH
rain 1hr
cm
rain 24hr
cm
rain mn
cm
humidity
%
barometer
mb
20260504120109 8 336 14.5 22.5 0.00 0.00 0.00 66 1007.3
20260504081547 8 208 11.3 14.5 0.00 0.00 0.00 80 1004.4
20260504044546 12 217 12.9 17.7 0.00 0.00 0.00 67 1006.1
20260504043108 12 202 14.5 19.3 0.00 0.00 0.00 66 1006.0
20260504041546 12 192 11.3 14.5 0.00 0.00 0.00 64 1006.0
20260504040048 13 214 12.9 20.9 0.00 0.00 0.00 61 1006.4
20260504034551 13 215 12.9 19.3 0.00 0.00 0.00 60 1006.4
20260504033046 13 209 12.9 19.3 0.00 0.00 0.00 59 1006.4
20260504031550 14 211 12.9 20.9 0.00 0.00 0.00 58 1006.4
20260504024547 15 209 12.9 22.5 0.00 0.00 0.00 55 1006.4
20260504023047 15 184 12.9 16.1 0.00 0.00 0.00 53 1006.4
20260504021548 16 208 11.3 20.9 0.00 0.00 0.00 50 1006.5
20260504020054 17 205 14.5 22.5 0.00 0.00 0.00 46 1006.6
20260504014545 17 196 12.9 19.3 0.00 0.00 0.00 44 1006.7
20260504013050 18 198 12.9 24.1 0.00 0.00 0.00 41 1006.8
20260504011546 19 211 16.1 29.0 0.00 0.00 0.00 39 1007.1
20260504010056 20 201 17.7 25.7 0.00 0.00 0.00 39 1007.3
20260504004547 20 223 17.7 29.0 0.00 0.00 0.00 38 1007.5
20260504003045 20 222 24.1 33.8 0.00 0.00 0.00 38 1007.7
20260504001545 20 219 27.4 35.4 0.00 0.00 0.00 37 1007.8
20260504000046 20 213 20.9 30.6 0.00 0.00 0.00 36 1008.1
20260503234544 21 222 20.9 35.4 0.00 0.00 0.00 34 1008.3
20260503233050 21 228 25.7 30.6 0.00 0.00 0.00 33 1008.7
20260503231550 21 240 20.9 32.2 0.00 0.00 0.00 32 1008.6
20260503230058 20 219 14.5 27.4 0.00 0.00 0.00 35 1008.8
20260503224542 19 221 20.9 33.8 0.00 0.00 0.00 36 1008.9
20260503223055 17 244 29.0 45.1 0.00 0.00 0.00 49 1009.2
20260503221550 17 227 37.0 62.8 0.00 0.00 0.00 48 1009.9
20260503220050 18 262 49.9 66.0 0.00 0.00 0.00 45 1010.1
20260503214554 21 254 9.7 19.3 0.00 0.00 0.00 28 1009.6
20260503213046 22 202 9.7 30.6 0.00 0.00 0.00 27 1009.8
20260503211553 23 248 4.8 17.7 0.00 0.00 0.00 26 1010.0
20260503210045 22 236 4.8 14.5 0.00 0.00 0.00 27 1010.1
20260503204546 20 61 4.8 16.1 0.00 0.00 0.00 30 1010.5
20260503203049 21 329 11.3 24.1 0.00 0.00 0.00 28 1010.6
20260503201548 21 352 9.7 19.3 0.00 0.00 0.00 29 1010.9
20260503200048 21 284 9.7 17.7 0.00 0.00 0.00 28 1011.3
20260503194557 21 220 17.7 27.4 0.00 0.00 0.00 28 1011.4
20260503193044 20 308 8.0 24.1 0.00 0.00 0.00 29 1011.7
20260503191547 20 252 11.3 27.4 0.00 0.00 0.00 28 1011.8
20260503190046 20 227 3.2 19.3 0.00 0.00 0.00 30 1012.0
20260503184548 20 44 6.4 16.1 0.00 0.00 0.00 33 1012.3
20260503183055 19 114 9.7 20.9 0.00 0.00 0.00 33 1012.5
20260503181558 19 50 3.2 14.5 0.00 0.00 0.00 34 1012.9
20260503180050 19 36 4.8 11.3 0.00 0.00 0.00 32 1013.2
20260503174552 20 271 3.2 14.5 0.00 0.00 0.00 32 1013.6
20260503173047 19 250 8.0 17.7 0.00 0.00 0.00 34 1013.8
20260503171546 20 243 8.0 17.7 0.00 0.00 0.00 33 1014.2